| time (UTC) | temp C | wind direction | speed KPH | gust KPH | rain 1hr cm | rain 24hr cm | rain mn cm | humidity % | barometer mb |
| 20260505102016 | 10 | 0 | 0.0 | 6.4 | 0.00 | 0.10 | 0.05 | 77 | 1023.3 |
| 20260505101555 | 10 | 305 | 0.0 | 4.8 | 0.00 | 0.10 | 0.05 | 77 | 1023.2 |
| 20260505101020 | 10 | 0 | 0.0 | 4.8 | 0.00 | 0.10 | 0.05 | 76 | 1023.2 |
| 20260505100517 | 10 | 217 | 1.6 | 4.8 | 0.00 | 0.10 | 0.05 | 76 | 1023.2 |
| 20260505100053 | 10 | 217 | 0.0 | 4.8 | 0.00 | 0.10 | 0.05 | 76 | 1023.2 |
| 20260505095522 | 10 | 0 | 0.0 | 0.0 | 0.00 | 0.10 | 0.05 | 76 | 1023.2 |
| 20260505095019 | 10 | 0 | 0.0 | 0.0 | 0.00 | 0.10 | 0.05 | 76 | 1023.1 |
| 20260505094533 | 10 | 0 | 0.0 | 0.0 | 0.00 | 0.10 | 0.05 | 76 | 1023.1 |
| 20260505094020 | 10 | 0 | 0.0 | 3.2 | 0.00 | 0.10 | 0.05 | 76 | 1023.1 |
| 20260505093520 | 10 | 0 | 0.0 | 6.4 | 0.00 | 0.10 | 0.05 | 76 | 1023.1 |
| 20260505093040 | 10 | 216 | 1.6 | 6.4 | 0.00 | 0.10 | 0.05 | 75 | 1023.0 |
| 20260505092517 | 10 | 0 | 0.0 | 0.0 | 0.00 | 0.10 | 0.05 | 75 | 1023.1 |
| 20260505092017 | 10 | 0 | 0.0 | 0.0 | 0.00 | 0.10 | 0.05 | 75 | 1023.1 |
| 20260505091536 | 10 | 0 | 0.0 | 0.0 | 0.00 | 0.10 | 0.05 | 75 | 1023.1 |
| 20260505091016 | 10 | 0 | 0.0 | 1.6 | 0.00 | 0.10 | 0.05 | 75 | 1023.1 |
| 20260505090520 | 10 | 0 | 0.0 | 3.2 | 0.00 | 0.10 | 0.05 | 75 | 1023.1 |
| 20260505090035 | 10 | 200 | 0.0 | 3.2 | 0.00 | 0.10 | 0.05 | 75 | 1023.2 |
| 20260505085519 | 10 | 200 | 0.0 | 11.3 | 0.00 | 0.10 | 0.05 | 75 | 1023.1 |
| 20260505085020 | 10 | 0 | 1.6 | 11.3 | 0.00 | 0.10 | 0.05 | 75 | 1023.0 |
| 20260505084535 | 10 | 209 | 4.8 | 12.9 | 0.00 | 0.10 | 0.05 | 75 | 1022.9 |
| 20260505084020 | 10 | 196 | 3.2 | 12.9 | 0.00 | 0.10 | 0.05 | 76 | 1023.0 |
| 20260505083521 | 10 | 233 | 6.4 | 12.9 | 0.00 | 0.10 | 0.05 | 76 | 1022.9 |
| 20260505083040 | 10 | 223 | 3.2 | 8.0 | 0.00 | 0.10 | 0.05 | 76 | 1022.9 |
| 20260505082517 | 10 | 223 | 3.2 | 8.0 | 0.00 | 0.10 | 0.05 | 76 | 1022.9 |
| 20260505082020 | 10 | 0 | 1.6 | 6.4 | 0.00 | 0.10 | 0.05 | 76 | 1022.8 |
| 20260505081538 | 10 | 217 | 3.2 | 6.4 | 0.00 | 0.10 | 0.05 | 76 | 1022.7 |
| 20260505081020 | 10 | 215 | 1.6 | 3.2 | 0.00 | 0.10 | 0.05 | 76 | 1022.6 |
| 20260505080520 | 10 | 0 | 0.0 | 3.2 | 0.00 | 0.10 | 0.05 | 76 | 1022.7 |
| 20260505080046 | 10 | 215 | 1.6 | 3.2 | 0.00 | 0.10 | 0.05 | 76 | 1022.6 |
| 20260505075519 | 10 | 215 | 1.6 | 3.2 | 0.00 | 0.36 | 0.05 | 76 | 1022.5 |
| 20260505075019 | 10 | 215 | 1.6 | 11.3 | 0.00 | 0.36 | 0.05 | 75 | 1022.5 |
| 20260505074535 | 10 | 215 | 3.2 | 16.1 | 0.00 | 0.36 | 0.05 | 75 | 1022.5 |
| 20260505074016 | 10 | 215 | 8.0 | 16.1 | 0.00 | 0.36 | 0.05 | 75 | 1022.4 |
| 20260505073519 | 10 | 199 | 8.0 | 16.1 | 0.00 | 0.36 | 0.05 | 76 | 1022.3 |
| 20260505073039 | 10 | 236 | 9.7 | 16.1 | 0.00 | 0.36 | 0.05 | 76 | 1022.3 |
| 20260505072520 | 10 | 243 | 6.4 | 17.7 | 0.00 | 0.36 | 0.05 | 76 | 1022.1 |
| 20260505072021 | 10 | 227 | 6.4 | 17.7 | 0.00 | 0.36 | 0.05 | 76 | 1022.2 |
| 20260505071531 | 11 | 248 | 6.4 | 11.3 | 0.00 | 0.36 | 0.05 | 76 | 1022.2 |
| 20260505071022 | 11 | 223 | 6.4 | 11.3 | 0.00 | 0.36 | 0.05 | 75 | 1022.2 |
| 20260505070520 | 11 | 234 | 4.8 | 8.0 | 0.00 | 0.36 | 0.05 | 75 | 1022.2 |
| 20260505070034 | 11 | 233 | 4.8 | 8.0 | 0.00 | 0.36 | 0.05 | 75 | 1022.2 |
| 20260505065521 | 11 | 246 | 4.8 | 9.7 | 0.00 | 0.74 | 0.05 | 74 | 1022.1 |
| 20260505065016 | 11 | 211 | 4.8 | 11.3 | 0.00 | 0.74 | 0.05 | 74 | 1022.0 |
| 20260505064535 | 11 | 196 | 6.4 | 11.3 | 0.00 | 0.74 | 0.05 | 73 | 1021.9 |
| 20260505064019 | 11 | 225 | 4.8 | 11.3 | 0.00 | 0.74 | 0.05 | 73 | 1021.8 |
| 20260505063516 | 11 | 215 | 6.4 | 12.9 | 0.00 | 0.74 | 0.05 | 73 | 1021.7 |
| 20260505063045 | 12 | 191 | 6.4 | 12.9 | 0.00 | 0.74 | 0.05 | 73 | 1021.7 |
| 20260505062520 | 12 | 202 | 6.4 | 12.9 | 0.00 | 0.74 | 0.05 | 74 | 1021.6 |
| 20260505062019 | 11 | 194 | 6.4 | 12.9 | 0.00 | 0.74 | 0.05 | 74 | 1021.7 |
| 20260505061540 | 11 | 203 | 6.4 | 14.5 | 0.00 | 0.74 | 0.05 | 74 | 1021.7 |
| 20260505061019 | 11 | 234 | 6.4 | 14.5 | 0.00 | 0.74 | 0.05 | 74 | 1021.7 |
| 20260505060520 | 11 | 223 | 8.0 | 12.9 | 0.00 | 0.74 | 0.05 | 74 | 1021.6 |
| 20260505060034 | 11 | 221 | 4.8 | 16.1 | 0.00 | 0.74 | 0.05 | 74 | 1021.6 |
| 20260505055520 | 11 | 218 | 8.0 | 16.1 | 0.00 | 0.76 | 0.05 | 74 | 1021.6 |
| 20260505055020 | 12 | 227 | 8.0 | 19.3 | 0.00 | 0.76 | 0.05 | 73 | 1021.4 |
| 20260505054543 | 12 | 250 | 9.7 | 19.3 | 0.00 | 0.76 | 0.05 | 73 | 1021.4 |
| 20260505054019 | 12 | 221 | 8.0 | 16.1 | 0.00 | 0.76 | 0.05 | 73 | 1021.3 |
| 20260505053519 | 12 | 240 | 8.0 | 16.1 | 0.00 | 0.76 | 0.05 | 72 | 1021.2 |
| 20260505053041 | 12 | 253 | 8.0 | 16.1 | 0.00 | 0.76 | 0.05 | 72 | 1021.1 |
| 20260505052519 | 12 | 242 | 4.8 | 12.9 | 0.00 | 0.76 | 0.05 | 71 | 1021.0 |
| 20260505052019 | 13 | 208 | 6.4 | 12.9 | 0.00 | 0.76 | 0.05 | 71 | 1021.0 |
| 20260505051540 | 13 | 207 | 6.4 | 12.9 | 0.00 | 0.76 | 0.05 | 72 | 1020.8 |
| 20260505051017 | 13 | 211 | 8.0 | 14.5 | 0.00 | 0.76 | 0.05 | 71 | 1020.8 |
| 20260505050517 | 13 | 229 | 8.0 | 14.5 | 0.00 | 0.76 | 0.05 | 70 | 1020.8 |
| 20260505041536 | 12 | 250 | 1.6 | 11.3 | 0.00 | 0.76 | 0.05 | 69 | 1020.5 |
| 20260505041020 | 13 | 249 | 4.8 | 17.7 | 0.00 | 0.76 | 0.05 | 67 | 1020.5 |
| 20260505040518 | 13 | 229 | 6.4 | 17.7 | 0.00 | 0.76 | 0.05 | 67 | 1020.5 |
| 20260505040037 | 13 | 227 | 9.7 | 17.7 | 0.00 | 0.76 | 0.05 | 68 | 1020.4 |
| 20260505035521 | 13 | 263 | 4.8 | 12.9 | 0.00 | 0.76 | 0.05 | 70 | 1020.4 |
| 20260505035019 | 12 | 317 | 1.6 | 9.7 | 0.00 | 0.76 | 0.05 | 71 | 1020.4 |
| 20260505034535 | 12 | 279 | 3.2 | 9.7 | 0.00 | 0.76 | 0.05 | 70 | 1020.4 |
| 20260505034016 | 12 | 200 | 3.2 | 12.9 | 0.00 | 0.76 | 0.05 | 70 | 1020.3 |
| 20260505033520 | 12 | 220 | 4.8 | 12.9 | 0.00 | 0.76 | 0.05 | 71 | 1020.3 |
| 20260505033033 | 12 | 248 | 6.4 | 14.5 | 0.00 | 0.76 | 0.05 | 70 | 1020.3 |
| 20260505032520 | 12 | 180 | 4.8 | 16.1 | 0.00 | 0.76 | 0.05 | 70 | 1020.4 |
| 20260505032016 | 12 | 236 | 4.8 | 16.1 | 0.00 | 0.76 | 0.05 | 70 | 1020.4 |
| 20260505031538 | 12 | 196 | 9.7 | 16.1 | 0.00 | 0.76 | 0.05 | 69 | 1020.4 |
| 20260505031023 | 12 | 225 | 4.8 | 11.3 | 0.00 | 0.76 | 0.05 | 72 | 1020.5 |
| 20260505030517 | 12 | 217 | 1.6 | 12.9 | 0.00 | 0.76 | 0.05 | 74 | 1020.4 |
| 20260505030036 | 12 | 172 | 6.4 | 12.9 | 0.00 | 0.76 | 0.05 | 73 | 1020.5 |
| 20260505025518 | 12 | 133 | 6.4 | 19.3 | 0.00 | 0.76 | 0.05 | 74 | 1020.6 |
| 20260505025021 | 11 | 211 | 8.0 | 19.3 | 0.00 | 0.76 | 0.05 | 76 | 1020.7 |
| 20260505024536 | 11 | 184 | 6.4 | 16.1 | 0.00 | 0.76 | 0.05 | 77 | 1020.8 |
| 20260505024016 | 11 | 212 | 4.8 | 12.9 | 0.00 | 0.76 | 0.05 | 77 | 1020.8 |
| 20260505023516 | 11 | 170 | 4.8 | 12.9 | 0.00 | 0.76 | 0.05 | 77 | 1020.9 |
| 20260505023037 | 11 | 140 | 8.0 | 12.9 | 0.00 | 0.76 | 0.05 | 77 | 1020.8 |
| 20260505022520 | 11 | 210 | 3.2 | 12.9 | 0.00 | 0.76 | 0.05 | 78 | 1021.0 |
| 20260505022019 | 10 | 201 | 6.4 | 14.5 | 0.00 | 0.76 | 0.05 | 78 | 1021.0 |
| 20260505021535 | 10 | 228 | 4.8 | 17.7 | 0.00 | 0.76 | 0.05 | 78 | 1021.1 |
| 20260505021020 | 10 | 207 | 6.4 | 19.3 | 0.00 | 0.76 | 0.05 | 79 | 1021.1 |
| 20260505020520 | 10 | 211 | 9.7 | 19.3 | 0.00 | 0.76 | 0.05 | 79 | 1021.1 |
| 20260505020039 | 11 | 221 | 9.7 | 19.3 | 0.00 | 0.76 | 0.05 | 79 | 1021.1 |
| 20260505015523 | 11 | 221 | 9.7 | 17.7 | 0.00 | 0.76 | 0.05 | 79 | 1021.1 |
| 20260505015020 | 11 | 234 | 8.0 | 19.3 | 0.00 | 0.76 | 0.05 | 79 | 1021.1 |
| 20260505014538 | 11 | 186 | 9.7 | 19.3 | 0.00 | 0.76 | 0.05 | 79 | 1021.1 |
| 20260505014019 | 11 | 191 | 8.0 | 20.9 | 0.00 | 0.76 | 0.05 | 79 | 1021.0 |
| 20260505013520 | 11 | 242 | 11.3 | 20.9 | 0.00 | 0.76 | 0.05 | 79 | 1021.1 |
| 20260505013035 | 11 | 238 | 9.7 | 19.3 | 0.00 | 0.76 | 0.05 | 81 | 1021.1 |
| 20260505012519 | 10 | 200 | 6.4 | 17.7 | 0.00 | 0.76 | 0.05 | 83 | 1021.1 |
| 20260505012019 | 10 | 219 | 8.0 | 17.7 | 0.00 | 0.76 | 0.05 | 83 | 1021.1 |
| 20260505011537 | 10 | 192 | 8.0 | 17.7 | 0.00 | 0.76 | 0.05 | 84 | 1021.0 |
| 20260505011021 | 10 | 223 | 9.7 | 17.7 | 0.00 | 0.76 | 0.05 | 85 | 1021.0 |
| 20260505010521 | 10 | 253 | 6.4 | 19.3 | 0.00 | 0.76 | 0.05 | 86 | 1021.0 |
| 20260505010057 | 10 | 240 | 9.7 | 19.3 | 0.00 | 0.76 | 0.05 | 86 | 1020.9 |
| 20260505005520 | 10 | 229 | 11.3 | 20.9 | 0.00 | 0.76 | 0.05 | 88 | 1020.9 |
| 20260505005020 | 10 | 263 | 11.3 | 22.5 | 0.00 | 0.76 | 0.05 | 89 | 1020.9 |
| 20260505004536 | 10 | 221 | 11.3 | 22.5 | 0.00 | 0.76 | 0.05 | 89 | 1020.8 |
| 20260505004019 | 10 | 230 | 11.3 | 20.9 | 0.00 | 0.76 | 0.05 | 91 | 1020.8 |
| 20260505003520 | 10 | 203 | 9.7 | 22.5 | 0.00 | 0.76 | 0.05 | 92 | 1020.7 |
| 20260505003041 | 10 | 229 | 8.0 | 22.5 | 0.00 | 0.76 | 0.05 | 92 | 1020.6 |
| 20260505002516 | 10 | 225 | 11.3 | 22.5 | 0.00 | 0.76 | 0.05 | 93 | 1020.5 |
| 20260505002017 | 10 | 223 | 12.9 | 22.5 | 0.00 | 0.76 | 0.05 | 93 | 1020.4 |
| 20260505001535 | 10 | 276 | 9.7 | 19.3 | 0.00 | 0.76 | 0.05 | 94 | 1020.4 |
| 20260505001020 | 10 | 230 | 8.0 | 17.7 | 0.00 | 0.76 | 0.05 | 94 | 1020.4 |
| 20260505000519 | 10 | 246 | 9.7 | 16.1 | 0.00 | 0.76 | 0.05 | 95 | 1020.3 |
| 20260505000043 | 10 | 245 | 6.4 | 14.5 | 0.00 | 0.76 | 0.05 | 95 | 1020.3 |
| 20260504235520 | 9 | 228 | 8.0 | 16.1 | 0.00 | 0.76 | 0.05 | 95 | 1020.3 |
| 20260504235020 | 9 | 207 | 8.0 | 16.1 | 0.00 | 0.76 | 0.05 | 95 | 1020.2 |
| 20260504234534 | 9 | 240 | 6.4 | 16.1 | 0.00 | 0.76 | 0.05 | 95 | 1020.2 |
| 20260504234021 | 9 | 248 | 8.0 | 16.1 | 0.00 | 0.76 | 0.05 | 95 | 1020.3 |
| 20260504233521 | 9 | 217 | 6.4 | 14.5 | 0.00 | 0.76 | 0.05 | 95 | 1020.3 |
| 20260504233033 | 8 | 237 | 8.0 | 14.5 | 0.00 | 0.76 | 0.05 | 95 | 1020.2 |
| 20260504232520 | 8 | 239 | 4.8 | 12.9 | 0.00 | 0.76 | 0.05 | 95 | 1020.2 |
| 20260504232019 | 8 | 205 | 4.8 | 12.9 | 0.00 | 0.76 | 0.05 | 95 | 1020.2 |
| 20260504231543 | 8 | 194 | 4.8 | 11.3 | 0.00 | 0.76 | 0.05 | 95 | 1020.3 |
| 20260504231020 | 8 | 192 | 4.8 | 12.9 | 0.00 | 0.76 | 0.05 | 95 | 1020.2 |
| 20260504230519 | 8 | 0 | 6.4 | 20.9 | 0.00 | 0.76 | 0.05 | 95 | 1020.1 |
| 20260504230044 | 8 | 213 | 11.3 | 20.9 | 0.00 | 0.76 | 0.05 | 95 | 1020.0 |
| 20260504225521 | 8 | 184 | 4.8 | 12.9 | 0.00 | 0.76 | 0.05 | 95 | 1020.1 |
| 20260504225021 | 8 | 178 | 6.4 | 17.7 | 0.00 | 0.76 | 0.05 | 95 | 1020.1 |
| 20260504224536 | 8 | 194 | 6.4 | 17.7 | 0.00 | 0.76 | 0.05 | 95 | 1020.0 |
| 20260504224020 | 8 | 200 | 8.0 | 17.7 | 0.00 | 0.76 | 0.05 | 95 | 1019.9 |
| 20260504223520 | 8 | 227 | 4.8 | 11.3 | 0.00 | 0.76 | 0.05 | 95 | 1019.9 |
| 20260504223035 | 8 | 236 | 4.8 | 11.3 | 0.00 | 0.76 | 0.05 | 95 | 1019.8 |
| 20260504222520 | 8 | 219 | 4.8 | 11.3 | 0.00 | 0.76 | 0.05 | 95 | 1019.6 |
| 20260504222021 | 8 | 221 | 4.8 | 9.7 | 0.00 | 0.74 | 0.03 | 95 | 1019.7 |
| 20260504221548 | 8 | 211 | 4.8 | 8.0 | 0.00 | 0.74 | 0.03 | 96 | 1019.6 |
| 20260504221020 | 8 | 241 | 3.2 | 12.9 | 0.00 | 0.74 | 0.03 | 96 | 1019.4 |
| 20260504220519 | 8 | 0 | 3.2 | 12.9 | 0.00 | 0.74 | 0.03 | 95 | 1019.4 |
| 20260504220038 | 8 | 230 | 3.2 | 8.0 | 0.00 | 0.74 | 0.03 | 95 | 1019.4 |
| 20260504215517 | 8 | 210 | 1.6 | 6.4 | 0.00 | 0.74 | 0.03 | 95 | 1019.3 |
| 20260504215022 | 8 | 214 | 1.6 | 11.3 | 0.00 | 0.74 | 0.03 | 95 | 1019.1 |
| 20260504214535 | 8 | 0 | 4.8 | 11.3 | 0.00 | 0.74 | 0.03 | 95 | 1019.0 |
| 20260504214019 | 8 | 237 | 3.2 | 12.9 | 0.00 | 0.74 | 0.03 | 95 | 1018.8 |
| 20260504213521 | 8 | 226 | 3.2 | 12.9 | 0.00 | 0.74 | 0.03 | 95 | 1018.7 |
| 20260504213047 | 8 | 244 | 8.0 | 12.9 | 0.00 | 0.74 | 0.03 | 95 | 1018.6 |
| 20260504212519 | 8 | 249 | 6.4 | 12.9 | 0.00 | 0.74 | 0.03 | 95 | 1018.5 |
| 20260504212019 | 8 | 281 | 3.2 | 11.3 | 0.00 | 0.74 | 0.03 | 95 | 1018.4 |
| 20260504211539 | 8 | 265 | 3.2 | 9.7 | 0.00 | 0.74 | 0.03 | 95 | 1018.4 |
| 20260504211020 | 8 | 258 | 4.8 | 9.7 | 0.00 | 0.74 | 0.03 | 95 | 1018.3 |
| 20260504210520 | 8 | 273 | 3.2 | 6.4 | 0.00 | 0.74 | 0.03 | 95 | 1018.1 |
| 20260504210041 | 8 | 266 | 1.6 | 8.0 | 0.00 | 0.74 | 0.03 | 95 | 1018.1 |
| 20260504205520 | 8 | 266 | 1.6 | 8.0 | 0.00 | 0.74 | 0.03 | 95 | 1017.9 |
| 20260504205019 | 8 | 277 | 3.2 | 9.7 | 0.00 | 0.74 | 0.03 | 95 | 1017.9 |
| 20260504204532 | 8 | 273 | 3.2 | 9.7 | 0.00 | 0.74 | 0.03 | 95 | 1017.9 |
| 20260504204019 | 8 | 290 | 3.2 | 8.0 | 0.00 | 0.74 | 0.03 | 95 | 1017.8 |
| 20260504203522 | 8 | 240 | 3.2 | 8.0 | 0.00 | 0.74 | 0.03 | 95 | 1017.7 |
| 20260504203046 | 8 | 233 | 3.2 | 9.7 | 0.00 | 0.74 | 0.03 | 95 | 1017.7 |
| 20260504202520 | 8 | 244 | 3.2 | 11.3 | 0.00 | 0.74 | 0.03 | 95 | 1017.7 |
| 20260504202019 | 8 | 248 | 3.2 | 11.3 | 0.00 | 0.74 | 0.03 | 95 | 1017.7 |
| 20260504201535 | 8 | 248 | 4.8 | 11.3 | 0.00 | 0.74 | 0.03 | 95 | 1017.6 |
| 20260504201021 | 8 | 233 | 3.2 | 12.9 | 0.00 | 0.74 | 0.03 | 95 | 1017.5 |
| 20260504200556 | 8 | 257 | 4.8 | 12.9 | 0.00 | 0.74 | 0.03 | 95 | 1017.5 |
| 20260504200036 | 8 | 252 | 4.8 | 14.5 | 0.00 | 0.74 | 0.03 | 95 | 1017.5 |
| 20260504195520 | 8 | 244 | 4.8 | 14.5 | 0.00 | 0.76 | 0.03 | 95 | 1017.4 |
| 20260504195020 | 8 | 268 | 6.4 | 14.5 | 0.00 | 0.76 | 0.03 | 95 | 1017.3 |
| 20260504194540 | 8 | 265 | 4.8 | 12.9 | 0.00 | 0.76 | 0.03 | 95 | 1017.3 |
| 20260504194020 | 8 | 267 | 4.8 | 12.9 | 0.00 | 0.76 | 0.03 | 95 | 1017.3 |
| 20260504193522 | 8 | 294 | 4.8 | 14.5 | 0.00 | 0.76 | 0.03 | 95 | 1017.3 |
| 20260504193039 | 8 | 301 | 4.8 | 14.5 | 0.00 | 0.76 | 0.03 | 95 | 1017.2 |
| 20260504192519 | 8 | 269 | 6.4 | 14.5 | 0.00 | 0.74 | 0.00 | 95 | 1017.2 |
| 20260504192019 | 8 | 288 | 4.8 | 12.9 | 0.00 | 0.74 | 0.00 | 95 | 1017.1 |
| 20260504191539 | 8 | 284 | 6.4 | 12.9 | 0.00 | 0.74 | 0.00 | 95 | 1017.0 |
| 20260504191021 | 8 | 293 | 4.8 | 12.9 | 0.00 | 0.74 | 0.00 | 95 | 1016.9 |
| 20260504190520 | 8 | 273 | 4.8 | 12.9 | 0.00 | 0.74 | 0.00 | 95 | 1016.9 |
| 20260504190037 | 8 | 300 | 4.8 | 12.9 | 0.00 | 0.74 | 0.00 | 95 | 1016.8 |
| 20260504185520 | 8 | 287 | 4.8 | 12.9 | 0.00 | 0.74 | 0.00 | 95 | 1016.8 |
| 20260504185023 | 8 | 288 | 6.4 | 12.9 | 0.00 | 0.74 | 0.00 | 95 | 1016.7 |
| 20260504184536 | 8 | 278 | 4.8 | 14.5 | 0.00 | 0.74 | 0.00 | 95 | 1016.8 |
| 20260504184020 | 8 | 264 | 4.8 | 16.1 | 0.00 | 0.74 | 0.00 | 95 | 1016.7 |
| 20260504183520 | 8 | 271 | 8.0 | 16.1 | 0.00 | 0.74 | 0.00 | 95 | 1016.6 |
| 20260504183033 | 8 | 276 | 6.4 | 12.9 | 0.00 | 0.74 | 0.00 | 95 | 1016.6 |
| 20260504182522 | 8 | 265 | 6.4 | 11.3 | 0.00 | 0.74 | 0.00 | 95 | 1016.5 |
| 20260504182020 | 8 | 281 | 3.2 | 12.9 | 0.00 | 0.74 | 0.00 | 95 | 1016.5 |
| 20260504181538 | 8 | 285 | 4.8 | 12.9 | 0.00 | 0.74 | 0.00 | 95 | 1016.5 |
| 20260504181022 | 8 | 263 | 6.4 | 12.9 | 0.00 | 0.74 | 0.00 | 95 | 1016.4 |
| 20260504180519 | 8 | 258 | 4.8 | 14.5 | 0.00 | 0.74 | 0.00 | 95 | 1016.4 |
| 20260504180046 | 8 | 277 | 4.8 | 14.5 | 0.00 | 0.74 | 0.00 | 95 | 1016.4 |
| 20260504175519 | 8 | 249 | 6.4 | 12.9 | 0.00 | 0.74 | 0.00 | 95 | 1016.3 |
| 20260504175019 | 8 | 284 | 4.8 | 11.3 | 0.00 | 0.74 | 0.00 | 95 | 1016.3 |
| 20260504174535 | 8 | 249 | 3.2 | 14.5 | 0.00 | 0.74 | 0.00 | 95 | 1016.2 |
| 20260504174019 | 8 | 272 | 6.4 | 14.5 | 0.00 | 0.74 | 0.00 | 95 | 1016.2 |
| 20260504173520 | 8 | 256 | 4.8 | 16.1 | 0.00 | 0.74 | 0.00 | 95 | 1016.2 |
| 20260504173035 | 8 | 255 | 4.8 | 16.1 | 0.00 | 0.74 | 0.00 | 95 | 1016.2 |
| 20260504172520 | 8 | 260 | 8.0 | 16.1 | 0.00 | 0.74 | 0.00 | 95 | 1016.2 |
| 20260504172020 | 8 | 274 | 6.4 | 12.9 | 0.00 | 0.74 | 0.00 | 95 | 1016.1 |
| 20260504171535 | 8 | 246 | 6.4 | 16.1 | 0.00 | 0.74 | 0.00 | 95 | 1016.2 |
| 20260504171020 | 8 | 281 | 8.0 | 16.1 | 0.00 | 0.74 | 0.00 | 95 | 1016.0 |
| 20260504170519 | 8 | 244 | 6.4 | 16.1 | 0.00 | 0.74 | 0.00 | 95 | 1016.0 |
| 20260504151020 | 8 | 254 | 4.8 | 16.1 | 0.00 | 0.74 | 0.00 | 95 | 1015.7 |
| 20260504150517 | 8 | 272 | 6.4 | 16.1 | 0.00 | 0.74 | 0.00 | 95 | 1015.7 |
| 20260504141018 | 9 | 250 | 11.3 | 24.1 | 0.00 | 0.74 | 0.00 | 95 | 1015.6 |
| 20260504140517 | 9 | 248 | 12.9 | 24.1 | 0.00 | 0.74 | 0.00 | 95 | 1015.7 |
| 20260504130520 | 9 | 284 | 11.3 | 20.9 | 0.00 | 0.74 | 0.74 | 95 | 1015.3 |
| 20260504110520 | 10 | 287 | 8.0 | 19.3 | 0.00 | 0.66 | 0.66 | 94 | 1014.2 |